Jilin-1 GaoFen 06A 26 xing

operational
NORAD ID: 57037 Int'l Des: NNA 2023-085 Owner: CGSTL Country: CN Constellation: jilin-1
LEOCIRCULARRETROGRADESSO

About Jilin-1 GaoFen 06A 26 xing

Description loading...

Live Position

Loading 3D Globe...

Upcoming Passes

Altitude History

Altitude vs Time

uPlot chart will show altitude changes over time

Two-Line Element Set

1 57037U 23085AK 25298.88955951 .00013582 00000-0 64542-3 0 9999
2 57037 97.4827 40.7898 0008767 191.4049 168.6988 15.19301179130695
Epoch: Oct 25, 2025 • Age: 6 hours

Current Status

Altitude 526.8 km
Velocity 7.60 km/s
Sub-Earth Point -59.04°S, 126.56°E
Launch Date Jun 15, 2023
Age 2.3 years
Type other

Technical Details

Classification Payload
Mass 42.00 kg
Dry Mass 42.00 kg
Total Mass 42.00 kg
Length 1.50 m
Diameter 1.00 m
Span 1.50 m
Shape Box
Manufacturer CGSTL
Bus Type JL-1
Phase Status In Orbit
Owner/State CGSTL/CN

Large Constellations

Loading constellations...